GLOBALSTAR M024 [-]

Last updated on July 6, 2021, 3:36 p.m. UTC

1 25883U 99043A   21186.84254442 -.00000018  00000-0  16506-2 0  9992
2 25883  52.0048  34.9754 0000572 253.8694 197.5597 11.10148345954683
UTC
Height (km)
Latitude
Longitude
Inclination
Orbital Period
UTC large
Height (km)
Speed (km/s)
/
Latitude / Longitude
Inclination (degrees)
Orbital Period (minutes)
Azimuth
Elevation
Range (km)
Doppler Factor
iOS Compass Heading
iOS Angle